Location: Newark
(56.0692°N, 115.8617°E)
Time: 12:26:16
(UTC+00:00)

Vanguard 2 Rocket - Pass Details

Date: 28 May 2020
Orbit: 556 x 3325 km, 32.9° (Epoch: 14 July)

Event Time Altitude Azimuth Distance (km) Brightness Sun altitude
Rises 12:14:38 0° 256° (WSW) 5,626 11.6 2.5°
Reaches altitude 10° 12:18:59 10° 244° (WSW) 5,029 11.1 2.1°
Maximum altitude 12:29:57 24° 198° (SSW) 4,718 10.4 0.9°
Drops below altitude 10° 12:43:29 10° 155° (SSE) 6,261 10.6 -0.6°
Enters shadow 12:49:47 - 144° (SE) 7,266 10.8 -1.2°
Sets 12:49:55 0° 144° (SE) 7,289 - -1.2°
